EW2175 Weather Reports


time (UTC)temp
C
wind
direction
speed
KPH
gust
KPH
rain 1hr
cm
rain 24hr
cm
rain mn
cm
humidity
%
barometer
mb
20260902044553 14 63 0.0 9.7 0.00 0.00 0.00 76 1018.9
20260902043109 15 57 0.0 3.2 0.00 0.00 0.00 75 1018.9
20260902041550 15 60 0.0 4.8 0.00 0.00 0.00 75 1018.8
20260902040050 15 57 0.0 4.8 0.00 0.00 0.00 75 1018.9
20260902034549 15 48 0.0 6.4 0.00 0.00 0.00 75 1018.7
20260902033047 15 84 0.0 0.0 0.00 0.00 0.00 75 1018.7
20260902031546 15 83 0.0 0.0 0.00 0.00 0.00 74 1018.9
20260902030044 15 83 0.0 4.8 0.00 0.00 0.00 73 1019.0
20260902024542 15 83 0.0 0.0 0.00 0.00 0.00 73 1019.0
20260902023046 15 83 0.0 0.0 0.00 0.00 0.00 72 1018.9
20260902021540 15 78 0.0 4.8 0.00 0.00 0.00 71 1018.8
20260902020038 16 82 0.0 6.4 0.00 0.00 0.00 71 1018.8
20260902014537 16 95 0.0 6.4 0.00 0.00 0.00 71 1018.7
20260902013034 16 87 1.6 9.7 0.00 0.00 0.00 70 1018.7
20260902011549 16 75 0.0 11.3 0.00 0.00 0.00 70 1018.8
20260902010031 16 92 0.0 8.0 0.00 0.00 0.00 70 1018.9
20260902004534 16 80 0.0 6.4 0.00 0.00 0.00 69 1019.0
20260902003030 16 67 0.0 8.0 0.00 0.00 0.00 69 1018.9
20260902001527 16 79 0.0 4.8 0.00 0.00 0.00 68 1019.1
20260902000026 17 105 0.0 3.2 0.00 0.00 0.00 68 1019.1
20260901234523 17 107 0.0 6.4 0.00 0.00 0.00 67 1019.3
20260901233025 17 90 1.6 8.0 0.00 0.00 0.00 67 1019.2
20260901231520 17 103 0.0 9.7 0.00 0.00 0.00 67 1019.1
20260901230018 17 69 0.0 14.5 0.00 0.00 0.00 66 1019.1
20260901224524 17 102 1.6 11.3 0.00 0.00 0.00 65 1019.1
20260901223014 17 71 1.6 8.0 0.00 0.00 0.00 65 1018.9
20260901221540 17 91 0.0 11.3 0.00 0.00 0.00 64 1018.9
20260901220010 18 45 3.2 14.5 0.00 0.00 0.00 64 1018.9
20260901214509 18 65 6.4 14.5 0.00 0.00 0.00 64 1018.9
20260901213018 18 87 3.2 12.9 0.00 0.00 0.00 64 1018.9
20260901211512 18 109 3.2 14.5 0.00 0.00 0.00 63 1018.9
20260901210007 18 84 3.2 16.1 0.00 0.00 0.00 63 1019.0
20260901204513 18 31 4.8 14.5 0.00 0.00 0.00 62 1019.0
20260901203006 19 109 3.2 14.5 0.00 0.00 0.00 62 1019.0
20260901201505 19 111 1.6 11.3 0.00 0.00 0.00 60 1018.9
20260901200020 20 80 0.0 12.9 0.00 0.00 0.00 60 1018.9
20260901194504 20 135 0.0 9.7 0.00 0.00 0.00 59 1018.8
20260901193003 20 90 0.0 11.3 0.00 0.00 0.00 58 1018.8
20260901191506 21 106 0.0 3.2 0.00 0.00 0.00 56 1018.7
20260901190108 21 94 0.0 4.8 0.00 0.00 0.00 54 1018.7
20260901184504 22 51 0.0 0.0 0.00 0.00 0.00 52 1018.6
20260901183001 23 329 0.0 0.0 0.00 0.00 0.00 50 1018.4
20260901181618 24 328 0.0 0.0 0.00 0.00 0.00 47 1018.4
20260901180100 24 328 0.0 0.0 0.00 0.00 0.00 45 1018.2
20260901174702 25 328 0.0 0.0 0.00 0.00 0.00 44 1018.2
20260901173105 25 317 0.0 1.6 0.00 0.00 0.00 43 1018.2
20260901171602 25 304 0.0 0.0 0.00 0.00 0.00 42 1018.1
20260901170100 26 297 0.0 3.2 0.00 0.00 0.00 40 1018.2
20260901164615 26 336 0.0 8.0 0.00 0.00 0.00 39 1018.3
20260901163055 27 357 0.0 12.9 0.00 0.00 0.00 38 1018.5
20260901161555 27 357 1.6 8.0 0.00 0.00 0.00 38 1018.4
20260901160108 27 348 0.0 4.8 0.00 0.00 0.00 38 1018.4
20260901154552 27 281 0.0 9.7 0.00 0.00 0.00 38 1018.4
20260901153101 27 315 0.0 12.9 0.00 0.00 0.00 37 1018.4
20260901151550 27 321 1.6 12.9 0.00 0.00 0.00 37 1018.4
20260901150058 28 340 1.6 16.1 0.00 0.00 0.00 35 1018.4
20260901144552 29 254 3.2 16.1 0.00 0.00 0.00 34 1018.4
20260901143057 28 341 1.6 6.4 0.00 0.00 0.00 37 1018.5
20260901141543 28 347 0.0 0.0 0.00 0.00 0.00 36 1018.6
20260901140123 27 41 0.0 4.8 0.00 0.00 0.00 37 1018.8
20260901134540 28 17 0.0 4.8 0.00 0.00 0.00 38 1018.8
20260901133038 27 13 0.0 6.4 0.00 0.00 0.00 37 1018.9
20260901131540 28 334 4.8 16.1 0.00 0.00 0.00 36 1019.1
20260901130041 28 270 0.0 9.7 0.00 0.00 0.00 36 1019.2
20260901124535 27 32 1.6 6.4 0.00 0.00 0.00 37 1019.4
20260901123035 27 262 1.6 9.7 0.00 0.00 0.00 36 1019.5
20260901121532 27 264 0.0 4.8 0.00 0.00 0.00 37 1019.4
20260901120032 27 306 3.2 9.7 0.00 0.00 0.00 39 1019.5
20260901114533 27 13 0.0 14.5 0.00 0.00 0.00 38 1019.6
20260901113034 28 290 0.0 11.3 0.00 0.00 0.00 36 1019.8
20260901111525 27 155 1.6 11.3 0.00 0.00 0.00 38 1019.8
20260901110022 26 218 4.8 14.5 0.00 0.00 0.00 39 1019.8
20260901104521 25 220 6.4 16.1 0.00 0.00 0.00 40 1019.9
20260901103014 25 346 0.0 0.0 0.00 0.00 0.00 46 1020.1
20260901101530 24 346 4.8 9.7 0.00 0.00 0.00 48 1020.2
20260901100013 24 263 3.2 11.3 0.00 0.00 0.00 48 1020.4
20260901094525 24 335 0.0 16.1 0.00 0.00 0.00 51 1020.3
20260901093010 25 261 1.6 12.9 0.00 0.00 0.00 49 1020.4
20260901091506 24 204 4.8 9.7 0.00 0.00 0.00 54 1020.4
20260901090007 23 263 0.0 8.0 0.00 0.00 0.00 55 1020.3
20260901084559 23 228 0.0 6.4 0.00 0.03 0.00 60 1020.3
20260901083055 22 223 1.6 8.0 0.00 0.03 0.00 62 1020.4
20260901081558 21 220 1.6 6.4 0.00 0.03 0.00 65 1020.4
20260901080138 21 252 0.0 8.0 0.00 0.03 0.00 68 1020.3
20260901074542 20 255 0.0 6.4 0.00 0.03 0.00 69 1020.3
20260901073038 19 245 0.0 6.4 0.00 0.03 0.00 72 1020.2
20260901071538 18 290 0.0 4.8 0.00 0.03 0.00 74 1020.2
20260901070035 18 105 0.0 0.0 0.00 0.03 0.00 75 1020.2
20260901064529 17 106 0.0 0.0 0.00 0.03 0.00 76 1020.3
20260901063027 17 106 0.0 0.0 0.00 0.03 0.00 77 1020.2
20260901061525 17 106 0.0 0.0 0.00 0.03 0.00 78 1020.1
20260901060023 16 106 0.0 0.0 0.00 0.03 0.00 80 1020.1
20260901054521 16 106 0.0 0.0 0.00 0.03 0.00 80 1019.8
20260901053018 16 106 0.0 0.0 0.00 0.03 0.00 79 1019.7
20260901051515 16 106 0.0 0.0 0.00 0.03 0.00 78 1019.7
20260901050013 16 106 0.0 0.0 0.00 0.03 0.00 79 1019.6